Regional Weather Roundup
Issued by NWS

Home | Current Version | Previous Version | Graphics & Text | Print | Product List | Glossary On
Versions: 1 2 3 4 5 6 7 8 9 10 11 12 13 14 15 16 17 18 19 20 21 22 23 24 25 26 27 28 29 30 31 32 33 34 35 36 37 38 39 40 41 42 43 44 45 46 47 48 49 50
000
ASUS43 KTOP 301408
RWRKS

WEATHER ROUNDUP FOR KANSAS
NATIONAL WEATHER SERVICE GOODLAND KS
900 AM CDT SUN APR 30 2017

NOTE:  "FAIR" INDICATES FEW OR NO CLOUDS BELOW 12,000 FEET WITH NO
SIGNIFICANT WEATHER AND/OR OBSTRUCTIONS TO VISIBILITY.

KSZ001>006-013>018-027>032-041>047-301500-
NORTHWEST KANSAS

CITY           SKY/WX    TMP DP  RH WIND       PRES   REMARKS
GOODLAND       CLOUDY    35  26  69 N31G48    29.76R WCI  22
HAYS           LGT SNOW  33  32  96 N14       29.59S FOG     WCI  23
HILL CITY      LGT SNOW  33  33 100 N16       29.66R VSB 3/4 WCI  23
RUSSELL        LGT SNOW  37  36  96 NE17G25   29.54S FOG     WCI  27
$$

KSZ061>065-074>080-084>089-301500-
SOUTHWEST KANSAS

CITY           SKY/WX    TMP DP  RH WIND       PRES   REMARKS
DODGE CITY     LGT SNOW  33  32  96 N28G37    29.53F VSB 3/4 WCI  20
ELKHART          N/A    N/A N/A N/A MISG        N/A
GARDEN CITY    HVY SNOW  32  32 100 N29G40    29.61S VSB 1/4 WCI  18
GREAT BEND     LGT RAIN  38  37  97 N17       29.51F FOG     WCI  28
LIBERAL        LGT SNOW  33  32  96 NW39      29.62S VSB 3/4 WCI  17
PRATT          CLOUDY    37  36  97 N15       29.47F FOG     WCI  27
$$

KSZ066>073-081>083-090>101-301500-
SOUTHEAST KANSAS

CITY           SKY/WX    TMP DP  RH WIND       PRES   REMARKS
CHANUTE        CLOUDY    52  49  89 S15G25    29.53R
COFFEYVILLE    CLOUDY    51  48  89 S14       29.55R
HUTCHINSON     CLOUDY    43  42  97 NE9       29.47F FOG
MEDICINE LODGE   N/A    N/A N/A N/A N9        29.45F
NEWTON         CLOUDY    42  42 100 E9        29.48F FOG
PARSONS        CLOUDY    51  49  92 S10G23    29.54S
WICHITA INTL   CLOUDY    47  45  93 S14       29.47F
WICHITA JABRA  CLOUDY    46  45  96 SE10      29.48F
WICHITA MCCONL CLOUDY    46  45  93 S10       29.48F
WINFIELD       PTSUNNY   49  45  86 S13G20    29.50F
$$

KSZ007>012-019>026-033>040-048>060-102>105-301500-
NORTHEAST KANSAS

CITY           SKY/WX    TMP DP  RH WIND       PRES   REMARKS
CONCORDIA      RAIN      38  38 100 NE12      29.59R FOG     WCI  30
EMPORIA        CLOUDY    44  44 100 VRB3      29.50F FOG
LAWRENCE       CLOUDY    46  46 100 NE25G35   29.46F FOG
MANHATTAN      RAIN      43  32  65 NE8       29.52R VSB 3/4
MARYSVILLE     CLOUDY    41  37  87 NE21G31   29.52F
OLATHE IND     CLOUDY    47  46  97 NE14G28   29.48F FOG
OLATHE EXE     CLOUDY    46  46 100 NE18G25   29.48F FOG
SALINA         LGT RAIN  42  40  92 NE14G20   29.53F FOG
TOPEKA BILLARD CLOUDY    46  46 100 NE14      29.48F FOG
TOPEKA FORBES  CLOUDY    46  44  93 E15       29.47R FOG
$$




USA.gov is the U.S. government's official web portal to all federal, state and local government web resources and services.